Home > Weather > Narowal > Past weeks

Flag for Pakistan Weather for the Past 2 Weeks in Narowal, Pakistan

Now
90 °F

Scattered clouds.


Feels Like: 87 °F
Forecast: 74 / 100 °F
Wind: 2 mph from North

Location: Amritsar Airport

Current Time: May 5, 2016 at 10:59:32 AM

Latest Report: May 5, 2016 at 10:30 AM


Visibility: 3 mi

Pressure: 29.80 "Hg

Humidity: 29%

Dew Point: 54 °F

Location of NarowalLocation

Historic Weather in Narowal — Graph

°F

Narowal Temperature Yesterday

Maximum temperature yesterday: 90 °F (at 3:00 PM)
Minimum temperature yesterday: 73 °F (at 11:30 PM)
Average temperature yesterday: 82 °F

High & Low Weather Summary for the Past Weeks

 TemperatureHumidityPressure
High109 °F (May 2, 1:30 PM)78% (Apr 21, 10:00 PM)29.86 "Hg (Apr 21, 10:00 PM)
Low61 °F (Apr 23, 5:00 AM)5% (May 2, 1:30 PM)29.56 "Hg (May 1, 4:00 PM)
Average85 °F30%29.70 "Hg
* Reported Apr 20 9:00 AM — May 5 9:30 AM, Narowal, Weather by CustomWeather, © 2016

Note: Actual official high and low records may vary slightly from our data, if they occured in-between our weather recording intervals... More about our weather records

Advertising

Narowal Weather History for the Previous 24 Hours

Scroll right to see more
 ConditionsComfort  
Time TempWeatherWind HumidityBarometerVisibility
9:30 AM
Thu, May 5
86 °FPartly sunny.No wind35%29.83 "Hg3 mi
9:00 AM86 °FPartly sunny.2 mph35%29.80 "Hg3 mi
8:30 AM82 °FPartly sunny.6 mph42%29.80 "Hg3 mi
8:00 AM81 °FPartly sunny.5 mph42%29.80 "Hg3 mi
7:30 AM77 °FScattered clouds.6 mph47%29.77 "Hg3 mi
7:00 AM75 °FScattered clouds.2 mph50%29.77 "Hg3 mi
6:30 AM73 °FScattered clouds.2 mph53%29.77 "Hg3 mi
6:00 AM70 °FHaze.No wind60%29.74 "Hg3 mi
5:30 AM72 °FPassing clouds.2 mph57%29.74 "Hg3 mi
5:00 AM70 °FPassing clouds.No wind60%29.71 "Hg3 mi
3:30 AM72 °FPassing clouds.6 mph57%29.71 "Hg3 mi
3:00 AM73 °FPassing clouds.9 mph53%29.71 "Hg3 mi
2:30 AM73 °FPassing clouds.9 mph53%29.71 "Hg3 mi
2:00 AM73 °FPassing clouds.6 mph57%29.71 "Hg2 mi
1:30 AM72 °FPassing clouds.3 mph61%29.74 "Hg2 mi
1:00 AM70 °FPassing clouds.2 mph60%29.74 "Hg2 mi
12:30 AM72 °FPassing clouds.No wind57%29.71 "Hg2 mi
12:00 AM73 °FPassing clouds.No wind53%29.74 "Hg2 mi
11:30 PM
Wed, May 4
73 °FPassing clouds.No wind53%29.71 "Hg2 mi
11:00 PM75 °FPassing clouds.No wind50%29.74 "Hg2 mi
10:30 PM77 °FPassing clouds.5 mph47%29.74 "Hg2 mi
10:00 PM79 °FPassing clouds.8 mph42%29.74 "Hg2 mi
9:30 PM79 °FPassing clouds.2 mph45%29.74 "Hg2 mi
9:00 PM79 °FPassing clouds.5 mph45%29.74 "Hg2 mi
8:30 PM81 °FPassing clouds.3 mph42%29.71 "Hg2 mi
8:00 PM81 °FPassing clouds.2 mph42%29.68 "Hg2 mi
7:30 PM81 °FPassing clouds.2 mph42%29.68 "Hg3 mi
7:00 PM82 °FScattered clouds.6 mph40%29.68 "Hg3 mi
6:35 PM84 °FScattered clouds.7 mph37%29.65 "Hg3 mi
6:05 PM86 °FScattered clouds.12 mph33%29.65 "Hg3 mi
5:30 PM86 °FScattered clouds.13 mph35%29.65 "Hg2 mi
5:00 PM88 °FScattered clouds.13 mph31%29.62 "Hg2 mi
4:30 PM90 °FBroken clouds.15 mph27%29.62 "Hg2 mi
4:00 PM90 °FBroken clouds.15 mph29%29.62 "Hg2 mi
3:30 PM90 °FBroken clouds.16 mph29%29.65 "Hg2 mi
3:00 PM90 °FBroken clouds.20 mph33%29.65 "Hg2 mi
Weather by CustomWeather, © 2016

See weather overviewHow to use our weather pages